Regional Weather Roundup
Issued by NWS

Home | Current Version | Previous Version | Graphics & Text | Print | Product List | Glossary On
Versions: 1 2 3 4 5 6 7 8 9 10 11 12 13 14 15 16 17 18 19 20 21 22 23 24 25 26 27 28 29 30 31 32 33 34 35 36 37 38 39 40 41 42 43 44 45 46 47 48 49 50
000
ASUS45 KSLC 310310
RWRUT

UTAH REGIONAL WEATHER ROUNDUP
NATIONAL WEATHER SERVICE SALT LAKE CITY UT
900 PM MDT THU JUL 30 2015

UTZ001>011-023>025-310400-

NORTHERN UTAH

CITY           SKY/WX    TMP DP  RH WIND       PRES   REMARKS
BRIGHAM CITY   CLEAR     85  29  13 NW5       30.20R
HILL AFB       PTCLDY    80  31  17 CALM      30.24S
LOGAN          CLEAR     75  43  31 SE5       30.22R
OGDEN          PTCLDY    80  34  19 W5        30.21R
PROVO AIRPORT  PTCLDY    81  37  21 NW8       30.21S
SALT LAKE CITY PTCLDY    83  37  19 NW3       30.19S
VERNAL         PTCLDY    77  36  22 W5        30.23R
WENDOVER       CLEAR     88  27  11 CALM      30.19S
HEBER CITY     PTCLDY    64  34  32 CALM      30.30R
WEST JORDAN    CLEAR     79  32  18 W6        30.23S

$$

UTZ012>022-026-027-310400-

SOUTHERN/CENTRAL UTAH

CITY           SKY/WX    TMP DP  RH WIND       PRES   REMARKS
BLANDING       MOCLDY    77  42  28 E5        30.36R
BRYCE CANYON   PTCLDY    72  39  30 SE10      30.43R
CEDAR CITY     MOCLDY    78  42  27 W10       30.24R
DELTA          CLEAR     85  23  10 NE7       30.21R
HANKSVILLE     PTCLDY    84  27  12 E5        30.15R
MILFORD        PTCLDY    83  24  11 N8        30.19R
MOAB/CYNLANDS  CLEAR     82  24  12 SW5       30.13R
PRICE          PTCLDY    82  19   9 NW9       30.28R
ST GEORGE      PTCLDY    91  45  19 N9        30.03R
KANAB          MOCLDY    81  46  30 S3        30.25R

$$

REGIONAL REPORTS     COLORADO/ARIZONA

CITY           SKY/WX    TMP DP  RH WIND       PRES   REMARKS
CRAIG, CO      PTCLDY    68  29  23 S5        30.31R
GRAND JUNCTION CLEAR     82  23  11 N6        30.15S
RIFLE          PTCLDY    81  27  14 CALM      30.23R
MONTROSE       PTCLDY    77  35  21 CALM      30.26R
CORTEZ         CLEAR     72  52  49 CALM      30.32R
PAGE, AZ       CLOUDY    87  52  29 S9        30.13R
GRAND CANYON   CLOUDY    72  46  39 E7        30.37R
KINGMAN        CLOUDY    82  52  35 S7        30.13S
FLAGSTAFF      CLOUDY    60  57  89 E6        30.41R

$$

REGIONAL REPORTS    NEVADA/IDAHO/WYOMING

CITY           SKY/WX    TMP DP  RH WIND       PRES   REMARKS
LAS VEGAS, NV  CLOUDY    93  56  28 E13G24    30.00R HX  91
ELY            MOCLDY    84  21  10 E12       30.28S
ELKO           PTCLDY    86  16   7 N9        30.23R
POCATELLO, ID  CLEAR     77  37  23 E5        30.23S
BURLEY         CLEAR     78  36  21 W8        30.20R
EVANSTON, WY   PTCLDY    70  21  15 N9        30.43R
ROCK SPRINGS   CLEAR     75  17  11 N5        30.38R
KEMMERER       CLEAR     66  23  19 NW9       30.45R

$$


USA.gov is the U.S. government's official web portal to all federal, state and local government web resources and services.